This demonstration page uses our WeatherBlox Daily Observations layout. Learn more.

Left ArrowRight Arrow

Hourly Observations for June 24, 2019

Temp ( °F °C ) Dew Point ( °F °C ) Humidity (%) Winds ( mph kmh ) Pressure ( in mb ) Visibility ( mi km ) Precip ( " mm )
12:56 am 00:56 Partly Cloudy 53 11.7 50 10 89 89 WNW 6 9 29.87 1011 10 16 0.00 0.00
1:56 am 01:56 Cloudy 55 12.8 52 11.1 90 90 W 3 6 29.86 1011 10 16 0.00 0.00
2:56 am 02:56 Partly Cloudy 53 11.7 50 10 89 89 W 6 9 29.85 1011 10 16 0.00 0.00
3:56 am 03:56 Clear 53 11.7 50 10 89 89 W 9 15 29.84 1011 10 16 0.00 0.00
4:56 am 04:56 Clear 54 12.2 50 10 87 87 WNW 9 15 29.84 1011 10 16 0.00 0.00
5:56 am 05:56 Clear 53 11.7 49 9.4 86 86 W 6 9 29.84 1011 10 16 0.00 0.00
6:56 am 06:56 Sunny 52 11.1 49 9.4 89 89 W 5 7 29.84 1011 10 16 0.00 0.00
7:56 am 07:56 Sunny 58 14.4 49 9.4 72 72 W 7 11 29.83 1010 10 16 0.00 0.00
8:56 am 08:56 Sunny 62 16.7 49 9.4 62 62 W 8 13 29.83 1010 10 16 0.00 0.00
9:56 am 09:56 Sunny 66 18.9 51 10.6 59 59 W 12 19 29.84 1010 10 16 0.00 0.00
10:56 am 10:56 Sunny 69 20.6 53 11.7 57 57 WSW 5 7 29.83 1010 10 16 0.00 0.00
11:56 am 11:56 Sunny 72 22.2 54 12.2 53 53 VRB 5 7 29.82 1010 10 16 0.00 0.00
12:56 pm 12:56 Sunny 75 23.9 53 11.7 46 46 SW 9 15 29.81 1010 10 16 0.00 0.00
1:56 pm 13:56 Sunny 77 25 54 12.2 45 45 VRB 6 9 29.79 1009 10 16 0.00 0.00
2:56 pm 14:56 Sunny 79 26.1 51 10.6 38 38 W 15 24 29.78 1008 10 16 0.00 0.00
3:56 pm 15:56 Sunny 80 26.7 54 12.2 41 41 SW 13 20 29.77 1008 10 16 0.00 0.00
4:56 pm 16:56 Sunny 81 27.2 54 12.2 39 39 S 12 19 29.75 1008 10 16 0.00 0.00
5:56 pm 17:56 Sunny 82 27.8 52 11.1 35 35 SW 10 17 29.74 1007 10 16 0.00 0.00
6:56 pm 18:56 Sunny 82 27.8 56 13.3 41 41 S 7 11 29.73 1007 10 16 0.00 0.00
7:56 pm 19:56 Sunny 79 26.1 62 16.7 56 56 S 5 7 29.72 1007 10 16 0.00 0.00
8:56 pm 20:56 Sunny 73 22.8 62 16.7 69 69 SSE 6 9 29.73 1007 10 16 0.00 0.00
9:56 pm 21:56 Clear 69 20.6 60 15.6 73 73 SSE 8 13 29.73 1007 10 16 0.00 0.00
10:56 pm 22:56 Clear 68 20 60 15.6 76 76 SE 3 6 29.75 1007 10 16 0.00 0.00
11:56 pm 23:56 Clear with Light Rain 66 18.9 58 14.4 75 75 S 5 7 29.73 1007 8 13 0.00 0.03

Powered by AerisWeather